Cleveland Burke, OH

2:20 PM EDT on April 26, 2017 (GMT -0400)
Burke Lakefront

Weather History for KBKL - January, 2013

Change the Weather History Date:

Friday, January 4, 2013

  Actual Average Record
Temperature  
Mean Temperature 26 °F -  
Max Temperature 28 °F 35 °F 68 °F (1997)
Min Temperature 25 °F 25 °F 5 °F (1999)
Degree Days  
Heating Degree Days 38    
Moisture  
Dew Point 19 °F    
Average Humidity 70    
Maximum Humidity 78    
Minimum Humidity 61    
Precipitation  
Precipitation 0.00 in - - ()
Sea Level Pressure  
Sea Level Pressure 30.18 in    
Wind  
Wind Speed 18 mph (SW)    
Max Wind Speed 25 mph    
Max Gust Speed 40 mph    
Visibility 10 miles    
Events      
Averages and records for this station are not official NWS values.
T = Trace of Precipitation, MM = Missing Value Source: NWS Daily Summary

Daily Weather History Graph

Daily Weather History Graph

Search for Another Location

Airport or City:

Trip Planner

Search our weather history database for the weather conditions in past years. The results will help you decide how hot, cold, wet, or windy it might be!

Date:

Astronomy

Jan. 04, 2013 Rise Set
Actual Time 7:53 AM EST 5:10 PM EST
Civil Twilight 7:22 AM EST 5:41 PM EST
Nautical Twilight 6:47 AM EST 6:16 PM EST
Astronomical Twilight 6:13 AM EST 6:49 PM EST
Moon No Moon Rise 11:29 AM EST (1/4)
Length of Visible Light 10h 19m
Length of Day
9h 17m
Waning Gibbous, 55% of the Moon is Illuminated
Jan 4
Waning Gibbous
Jan 4
Last Quarter
Jan 11
New
Jan 18
First Quarter
Jan 26
Full

Hourly Weather History & Observations

Time (EST) Temp. Windchill Dew Point Humidity Pressure Visibility Wind Dir Wind Speed Gust Speed Precip Events Conditions
12:53 AM 28.9 °F 16.9 °F 23.0 °F 78% 30.18 in 10.0 mi WSW 17.3 mph - N/A   Overcast
1:53 AM 28.9 °F 17.3 °F 21.9 °F 75% 30.17 in 10.0 mi WSW 16.1 mph - N/A   Overcast
2:34 AM 28.4 °F 15.8 °F 21.2 °F 74% 30.16 in 10.0 mi WSW 18.4 mph 24.2 mph N/A   Overcast
2:53 AM 28.9 °F 16.9 °F 21.9 °F 75% 30.18 in 10.0 mi WSW 17.3 mph - N/A   Overcast
3:53 AM 28.9 °F 16.5 °F 21.9 °F 75% 30.18 in 10.0 mi SW 18.4 mph - N/A   Overcast
4:53 AM 28.0 °F 16.5 °F 21.0 °F 75% 30.16 in 10.0 mi SW 15.0 mph 24.2 mph N/A   Overcast
5:53 AM 28.0 °F 15.7 °F 21.0 °F 75% 30.16 in 10.0 mi SW 17.3 mph 26.5 mph N/A   Overcast
6:53 AM 27.0 °F 13.9 °F 19.9 °F 75% 30.19 in 10.0 mi SW 18.4 mph 26.5 mph N/A   Overcast
7:53 AM 26.1 °F 13.6 °F 17.1 °F 69% 30.19 in 10.0 mi SW 16.1 mph 25.3 mph N/A   Mostly Cloudy
8:53 AM 25.0 °F 10.9 °F 18.0 °F 75% 30.21 in 10.0 mi SW 19.6 mph - N/A   Clear
9:53 AM 26.1 °F 13.1 °F 17.1 °F 69% 30.20 in 10.0 mi SW 17.3 mph - N/A   Clear
10:53 AM 27.0 °F 13.2 °F 18.0 °F 69% 30.19 in 10.0 mi SW 20.7 mph 28.8 mph N/A   Clear
11:53 AM 28.0 °F 14.3 °F 17.1 °F 63% 30.18 in 10.0 mi SW 21.9 mph 28.8 mph N/A   Clear
12:53 PM 28.0 °F 14.6 °F 17.1 °F 63% 30.14 in 10.0 mi SW 20.7 mph 40.3 mph N/A   Clear
1:53 PM 28.9 °F 15.1 °F 17.1 °F 61% 30.12 in 10.0 mi SW 23.0 mph 32.2 mph N/A   Clear
2:53 PM 28.9 °F 14.8 °F 17.1 °F 61% 30.12 in 10.0 mi SW 24.2 mph 35.7 mph N/A   Clear
3:53 PM 28.9 °F 14.8 °F 17.1 °F 61% 30.12 in 10.0 mi SW 24.2 mph 38.0 mph N/A   Clear
4:53 PM 28.0 °F 13.3 °F 17.1 °F 63% 30.13 in 10.0 mi SW 25.3 mph 34.5 mph N/A   Clear
5:53 PM 27.0 °F 13.2 °F 17.1 °F 66% 30.14 in 10.0 mi SW 20.7 mph 28.8 mph N/A   Clear
6:53 PM 27.0 °F 13.9 °F 17.1 °F 66% 30.18 in 10.0 mi SW 18.4 mph 26.5 mph N/A   Clear
7:53 PM 27.0 °F 13.5 °F 18.0 °F 69% 30.20 in 10.0 mi WSW 19.6 mph 27.6 mph N/A   Clear
8:53 PM 27.0 °F 14.3 °F 18.0 °F 69% 30.21 in 10.0 mi WSW 17.3 mph - N/A   Clear
9:53 PM 26.1 °F 13.6 °F 18.0 °F 71% 30.22 in 10.0 mi WSW 16.1 mph - N/A   Clear
10:53 PM 26.1 °F 14.0 °F 18.0 °F 71% 30.23 in 10.0 mi SW 15.0 mph - N/A   Clear
11:53 PM 25.0 °F 13.6 °F 18.0 °F 75% 30.25 in 10.0 mi SW 12.7 mph - N/A   Clear